sat.trackr.live / text

‹ back to catalog

STARS-AO

NORAD 43679 · 2018-084J

PAYLOAD ACTIVE UNKNOWN

§ Identity

Operator
Country
JPN
Launch date
2018-10-29
Launch site
TANSC
Launch vehicle
Mass (kg)
RCS (m²)

External: N2YO · Heavens-Above · Gunter

§ Orbital elements

Epoch: 2026-09-14T13:17:06.294912Z

Period
94.87 min
Inclination
98.0376°
Eccentricity
0.0001479
Mean motion
15.17894510 rev/d
Perigee alt
511.2 km
Apogee alt
513.2 km
Semi-major
6,890.3 km
B*
2.3414e-4
RAAN
117.0445°
Arg perigee
173.3813°
Mean anomaly
186.7439°
Rev number
43,102

§ Raw data

STARS-AO1 43679U 18084J   26257.55354508  .00004670  00000+0  23414-3 0  99902 43679  98.0376 117.0445 0001479 173.3813 186.7439 15.17894510431022

JSON: /api/v1/satellites/43679 · /tle

For live sub-satellite position, see the globe view (requires WebGL).

§ Visibility from observer

Set your observer location to see the next 7 days of passes ≥ 10°. The values pass through the URL so the page stays shareable.

No JS? Fill the form by hand. The geolocation button needs JavaScript.

§ Radio — SatNOGS DB

ModeDescriptionDownlinkUplink
CW CW Beacon 437.350 MHz
GMSK High Speed 115kbpsGMSK 437.200 MHz
AFSK Mode U - AFSK1k2 Telemetry 437.400 MHz

3 transmitters · refreshed weekly from db.satnogs.org